INTELSAT 20 (IS-20)

Last updated on Tue Sep 16 2025 00:02:47 GMT+0000 (Coordinated Universal Time)

1 38740U 12043A 25258.38392854 -.00000040 00000+0 00000+0 0 9999 2 38740 0.0119 163.4575 0001786 2.5034 35.3515 1.00269254 47992
UTC large
Height (km)
Speed (km/s)
/
Latitude / Longitude
Inclination (degrees)
Orbital Period (minutes)
Azimuth
Elevation
Range (km)
Doppler Factor

Next 0 passes for location: London (51.5072 / 0.1276)

Sorry there are no passes over London.